Weather History for Ann Arbor, MI

Change the Weather History Date:

Thursday, December 6, 2012

  Actual Average Record
Temperature  
Mean Temperature 28 °F -  
Max Temperature 37 °F 39 °F 66 °F (1998)
Min Temperature 19 °F 24 °F 1 °F (2007)
Degree Days  
Heating Degree Days 37    
Moisture  
Dew Point 25 °F    
Average Humidity 79    
Maximum Humidity 92    
Minimum Humidity 65    
Precipitation  
Precipitation 0.00 in - - ()
Sea Level Pressure  
Sea Level Pressure 30.17 in    
Wind  
Wind Speed 4 mph (SSE)    
Max Wind Speed 8 mph    
Max Gust Speed -    
Visibility 10 miles    
Events      
Averages and records for this station are not official NWS values.
T = Trace of Precipitation, MM = Missing Value Source: NWS Daily Summary

Daily Weather History Graph

Daily Weather History Graph

Search for Another Location

Airport:

Trip Planner

Search our weather history database for the weather conditions in past years. The results will help you decide how hot, cold, wet, or windy it might be!

Date:

Astronomy

Dec. 06, 2012 Rise Set
Actual Time 7:49 AM EST 5:02 PM EST
Civil Twilight 7:18 AM EST 5:34 PM EST
Nautical Twilight 6:42 AM EST 6:09 PM EST
Astronomical Twilight 6:09 AM EST 6:43 PM EST
Moon No Moon Rise 12:35 PM EST (12/6)
Length of Visible Light 10h 16m
Length of Day
9h 13m
Waning Gibbous, 49% of the Moon is Illuminated
Dec 6
Waning Gibbous
Dec 13
New
Dec 20
First Quarter
Dec 28
Full
Jan 4
Last Quarter

Hourly Weather History & Observations

Time (EST) Temp. Windchill Dew Point Humidity Pressure Visibility Wind Dir Wind Speed Gust Speed Precip Events Conditions
12:53 AM 27.0 °F 21.6 °F 21.0 °F 78% 30.35 in 10.0 mi ESE 4.6 mph - N/A   Partly Cloudy
1:53 AM 27.0 °F 20.5 °F 21.0 °F 78% 30.34 in 10.0 mi ESE 5.8 mph - N/A   Clear
2:53 AM 26.1 °F 19.4 °F 19.9 °F 78% 30.34 in 10.0 mi ESE 5.8 mph - N/A   Partly Cloudy
3:53 AM 25.0 °F - 19.9 °F 81% 30.31 in 10.0 mi Calm Calm - N/A   Clear
4:53 AM 25.0 °F 19.3 °F 21.0 °F 85% 30.31 in 10.0 mi ESE 4.6 mph - N/A   Partly Cloudy
5:53 AM 25.0 °F - 21.0 °F 85% 30.30 in 10.0 mi Calm Calm - N/A   Clear
6:53 AM 19.0 °F - 17.1 °F 92% 30.30 in 10.0 mi Calm Calm - N/A   Partly Cloudy
7:53 AM 19.9 °F - 18.0 °F 92% 30.28 in 8.0 mi Calm Calm - N/A   Clear
8:53 AM 28.0 °F 24.2 °F 24.1 °F 85% 30.25 in 10.0 mi SSE 3.5 mph - N/A   Clear
9:53 AM 30.9 °F 25.2 °F 26.1 °F 82% 30.23 in 10.0 mi South 5.8 mph - N/A   Clear
10:53 AM 33.1 °F 27.7 °F 27.0 °F 78% 30.23 in 10.0 mi SW 5.8 mph - N/A   Clear
11:53 AM 35.1 °F 28.6 °F 26.1 °F 70% 30.19 in 10.0 mi South 8.1 mph - N/A   Clear
12:53 PM 37.0 °F 31.0 °F 26.1 °F 65% 30.15 in 10.0 mi South 8.1 mph - N/A   Clear
1:53 PM 37.0 °F 32.4 °F 26.1 °F 65% 30.12 in 10.0 mi South 5.8 mph - N/A   Clear
2:53 PM 37.0 °F 32.4 °F 27.0 °F 67% 30.09 in 10.0 mi South 5.8 mph - N/A   Clear
3:53 PM 37.0 °F 32.4 °F 28.0 °F 70% 30.08 in 10.0 mi South 5.8 mph - N/A   Clear
4:53 PM 35.1 °F 29.3 °F 28.0 °F 76% 30.06 in 10.0 mi South 6.9 mph - N/A   Clear
5:53 PM 35.1 °F 32.2 °F 28.0 °F 76% 30.06 in 10.0 mi South 3.5 mph - N/A   Clear
6:53 PM 35.1 °F 32.2 °F 28.0 °F 76% 30.06 in 10.0 mi SSE 3.5 mph - N/A   Clear
7:53 PM 34.0 °F - 28.0 °F 79% 30.05 in 10.0 mi Calm Calm - N/A   Clear
8:53 PM 34.0 °F - 28.9 °F 82% 30.03 in 10.0 mi Calm Calm - N/A   Clear
9:53 PM 35.1 °F - 30.0 °F 82% 30.01 in 10.0 mi Calm Calm - N/A   Partly Cloudy
10:53 PM 34.0 °F - 30.0 °F 85% 29.99 in 10.0 mi Calm Calm - N/A   Clear
11:53 PM 35.1 °F - 30.0 °F 82% 29.98 in 10.0 mi Calm Calm - N/A   Clear